| time (UTC) | temp F | wind direction | speed MPH | gust MPH | rain 1hr in | rain 24hr in | rain mn in | humidity % | barometer mb |
| 20260831232104 | 91 | 244 | 1.0 | 8.0 | 0.00 | 0.00 | 0.00 | 24 | 1004.2 |
| 20260831232022 | 91 | 40 | 1.0 | 12.0 | 0.00 | 0.00 | 0.00 | 24 | 1004.3 |
| 20260831231604 | 91 | 40 | 1.0 | 12.0 | 0.00 | 0.00 | 0.00 | 24 | 1004.3 |
| 20260831231103 | 91 | 0 | 6.0 | 12.0 | 0.00 | 0.00 | 0.00 | 23 | 1004.4 |
| 20260831230603 | 91 | 349 | 4.0 | 12.0 | 0.00 | 0.00 | 0.00 | 23 | 1004.4 |
| 20260831230105 | 91 | 358 | 4.0 | 10.0 | 0.00 | 0.00 | 0.00 | 23 | 1004.5 |
| 20260831230026 | 91 | 333 | 3.0 | 12.0 | 0.00 | 0.00 | 0.00 | 23 | 1004.6 |
| 20260831225604 | 91 | 333 | 3.0 | 12.0 | 0.00 | 0.00 | 0.00 | 23 | 1004.6 |
| 20260831225104 | 91 | 349 | 5.0 | 12.0 | 0.00 | 0.00 | 0.00 | 23 | 1004.6 |
| 20260831225023 | 91 | 325 | 1.0 | 8.0 | 0.00 | 0.00 | 0.00 | 22 | 1004.6 |
| 20260831224604 | 91 | 325 | 1.0 | 8.0 | 0.00 | 0.00 | 0.00 | 22 | 1004.6 |
| 20260831224103 | 92 | 312 | 4.0 | 14.0 | 0.00 | 0.00 | 0.00 | 22 | 1004.6 |
| 20260831224023 | 92 | 355 | 2.0 | 9.0 | 0.00 | 0.00 | 0.00 | 22 | 1004.7 |
| 20260831223603 | 92 | 355 | 2.0 | 9.0 | 0.00 | 0.00 | 0.00 | 22 | 1004.7 |
| 20260831223104 | 92 | 356 | 5.0 | 12.0 | 0.00 | 0.00 | 0.00 | 21 | 1004.6 |
| 20260831223026 | 92 | 356 | 8.0 | 16.0 | 0.00 | 0.00 | 0.00 | 21 | 1004.6 |
| 20260831222603 | 92 | 356 | 8.0 | 16.0 | 0.00 | 0.00 | 0.00 | 21 | 1004.6 |
| 20260831222103 | 92 | 339 | 2.0 | 6.0 | 0.00 | 0.00 | 0.00 | 21 | 1004.7 |
| 20260831222024 | 91 | 315 | 2.0 | 8.0 | 0.00 | 0.00 | 0.00 | 21 | 1004.7 |
| 20260831221604 | 91 | 315 | 2.0 | 8.0 | 0.00 | 0.00 | 0.00 | 21 | 1004.7 |
| 20260831221023 | 91 | 305 | 0.0 | 5.0 | 0.00 | 0.00 | 0.00 | 19 | 1004.7 |
| 20260831220603 | 91 | 305 | 0.0 | 5.0 | 0.00 | 0.00 | 0.00 | 19 | 1004.7 |
| 20260831220103 | 93 | 205 | 0.0 | 7.0 | 0.00 | 0.00 | 0.00 | 20 | 1004.8 |
| 20260831220025 | 93 | 353 | 3.0 | 6.0 | 0.00 | 0.00 | 0.00 | 20 | 1004.9 |
| 20260831215604 | 93 | 353 | 3.0 | 6.0 | 0.00 | 0.00 | 0.00 | 20 | 1004.9 |
| 20260831215104 | 94 | 27 | 3.0 | 9.0 | 0.00 | 0.00 | 0.00 | 19 | 1005.0 |
| 20260831215024 | 92 | 51 | 2.0 | 7.0 | 0.00 | 0.00 | 0.00 | 20 | 1005.0 |
| 20260831214604 | 92 | 51 | 2.0 | 7.0 | 0.00 | 0.00 | 0.00 | 20 | 1005.0 |
| 20260831214104 | 91 | 299 | 1.0 | 3.0 | 0.00 | 0.00 | 0.00 | 21 | 1005.2 |
| 20260831214024 | 92 | 40 | 1.0 | 5.0 | 0.00 | 0.00 | 0.00 | 20 | 1005.2 |
| 20260831213604 | 92 | 40 | 1.0 | 5.0 | 0.00 | 0.00 | 0.00 | 20 | 1005.2 |
| 20260831213104 | 92 | 8 | 1.0 | 7.0 | 0.00 | 0.00 | 0.00 | 20 | 1005.4 |
| 20260831213026 | 91 | 326 | 0.0 | 3.0 | 0.00 | 0.00 | 0.00 | 21 | 1005.4 |
| 20260831212604 | 91 | 326 | 0.0 | 3.0 | 0.00 | 0.00 | 0.00 | 21 | 1005.4 |
| 20260831212103 | 91 | 330 | 1.0 | 5.0 | 0.00 | 0.00 | 0.00 | 22 | 1005.5 |
| 20260831211603 | 91 | 359 | 0.0 | 6.0 | 0.00 | 0.00 | 0.00 | 20 | 1005.5 |
| 20260831211104 | 90 | 355 | 0.0 | 2.0 | 0.00 | 0.00 | 0.00 | 23 | 1005.7 |
| 20260831211022 | 89 | 2 | 2.0 | 5.0 | 0.00 | 0.00 | 0.00 | 23 | 1005.7 |
| 20260831210604 | 89 | 2 | 2.0 | 5.0 | 0.00 | 0.00 | 0.00 | 23 | 1005.7 |
| 20260831210103 | 88 | 359 | 1.0 | 3.0 | 0.00 | 0.00 | 0.00 | 25 | 1005.9 |
| 20260831210023 | 87 | 332 | 0.0 | 0.0 | 0.00 | 0.00 | 0.00 | 27 | 1006.0 |
| 20260831205603 | 87 | 332 | 0.0 | 0.0 | 0.00 | 0.00 | 0.00 | 27 | 1006.0 |
| 20260831205104 | 87 | 349 | 0.0 | 5.0 | 0.00 | 0.00 | 0.00 | 27 | 1006.2 |
| 20260831205022 | 87 | 328 | 0.0 | 3.0 | 0.00 | 0.00 | 0.00 | 27 | 1006.2 |
| 20260831204604 | 87 | 328 | 0.0 | 3.0 | 0.00 | 0.00 | 0.00 | 27 | 1006.2 |
| 20260831204021 | 87 | 3 | 2.0 | 3.0 | 0.00 | 0.00 | 0.00 | 27 | 1006.4 |
| 20260831203603 | 87 | 3 | 2.0 | 3.0 | 0.00 | 0.00 | 0.00 | 27 | 1006.4 |
| 20260831203104 | 86 | 353 | 1.0 | 8.0 | 0.00 | 0.00 | 0.00 | 28 | 1006.4 |
| 20260831203024 | 86 | 355 | 1.0 | 3.0 | 0.00 | 0.00 | 0.00 | 28 | 1006.5 |
| 20260831202604 | 86 | 355 | 1.0 | 3.0 | 0.00 | 0.00 | 0.00 | 28 | 1006.5 |
| 20260831202104 | 86 | 0 | 2.0 | 6.0 | 0.00 | 0.00 | 0.00 | 28 | 1006.6 |
| 20260831202021 | 85 | 316 | 0.0 | 2.0 | 0.00 | 0.00 | 0.00 | 31 | 1006.7 |
| 20260831201104 | 85 | 11 | 0.0 | 0.0 | 0.00 | 0.00 | 0.00 | 30 | 1006.8 |
| 20260831201021 | 85 | 357 | 0.0 | 3.0 | 0.00 | 0.00 | 0.00 | 31 | 1007.0 |
| 20260831200103 | 85 | 28 | 0.0 | 1.0 | 0.00 | 0.00 | 0.00 | 28 | 1007.0 |
| 20260831200026 | 84 | 15 | 2.0 | 5.0 | 0.00 | 0.00 | 0.00 | 28 | 1007.1 |
| 20260831195604 | 84 | 15 | 2.0 | 5.0 | 0.00 | 0.00 | 0.00 | 28 | 1007.1 |
| 20260831195022 | 83 | 355 | 0.0 | 6.0 | 0.00 | 0.00 | 0.00 | 30 | 1007.3 |
| 20260831194603 | 83 | 355 | 0.0 | 6.0 | 0.00 | 0.00 | 0.00 | 30 | 1007.3 |
| 20260831194104 | 83 | 0 | 1.0 | 5.0 | 0.00 | 0.00 | 0.00 | 31 | 1007.4 |
| 20260831194022 | 82 | 341 | 0.0 | 3.0 | 0.00 | 0.00 | 0.00 | 33 | 1007.5 |
| 20260831193023 | 81 | 333 | 1.0 | 6.0 | 0.00 | 0.00 | 0.00 | 32 | 1007.6 |
| 20260831192604 | 81 | 333 | 1.0 | 6.0 | 0.00 | 0.00 | 0.00 | 32 | 1007.6 |
| 20260831192104 | 80 | 13 | 0.0 | 5.0 | 0.00 | 0.00 | 0.00 | 33 | 1007.7 |
| 20260831192022 | 80 | 0 | 1.0 | 5.0 | 0.00 | 0.00 | 0.00 | 32 | 1007.7 |
| 20260831191604 | 80 | 0 | 1.0 | 5.0 | 0.00 | 0.00 | 0.00 | 32 | 1007.7 |
| 20260831191103 | 80 | 354 | 1.0 | 3.0 | 0.00 | 0.00 | 0.00 | 35 | 1007.9 |
| 20260831191021 | 79 | 5 | 1.0 | 3.0 | 0.00 | 0.00 | 0.00 | 34 | 1008.0 |
| 20260831190604 | 79 | 5 | 1.0 | 3.0 | 0.00 | 0.00 | 0.00 | 34 | 1008.0 |
| 20260831190104 | 78 | 338 | 0.0 | 0.0 | 0.00 | 0.00 | 0.00 | 38 | 1008.1 |
| 20260831190023 | 77 | 336 | 0.0 | 3.0 | 0.00 | 0.00 | 0.00 | 35 | 1008.3 |
| 20260831185604 | 77 | 336 | 0.0 | 3.0 | 0.00 | 0.00 | 0.00 | 35 | 1008.3 |
| 20260831185022 | 76 | 342 | 0.0 | 0.0 | 0.00 | 0.00 | 0.00 | 35 | 1008.4 |
| 20260831184604 | 76 | 342 | 0.0 | 0.0 | 0.00 | 0.00 | 0.00 | 35 | 1008.4 |
| 20260831184104 | 76 | 0 | 0.0 | 3.0 | 0.00 | 0.00 | 0.00 | 36 | 1008.5 |
| 20260831184022 | 76 | 21 | 2.0 | 5.0 | 0.00 | 0.00 | 0.00 | 35 | 1008.5 |
| 20260831183604 | 76 | 21 | 2.0 | 5.0 | 0.00 | 0.00 | 0.00 | 35 | 1008.5 |
| 20260831183104 | 76 | 297 | 0.0 | 5.0 | 0.00 | 0.00 | 0.00 | 38 | 1008.5 |
| 20260831183024 | 75 | 356 | 1.0 | 5.0 | 0.00 | 0.00 | 0.00 | 37 | 1008.6 |
| 20260831182605 | 75 | 356 | 1.0 | 5.0 | 0.00 | 0.00 | 0.00 | 37 | 1008.6 |
| 20260831182104 | 75 | 355 | 0.0 | 3.0 | 0.00 | 0.00 | 0.00 | 41 | 1008.8 |
| 20260831182022 | 74 | 356 | 2.0 | 6.0 | 0.00 | 0.00 | 0.00 | 38 | 1008.8 |
| 20260831181604 | 74 | 356 | 2.0 | 6.0 | 0.00 | 0.00 | 0.00 | 38 | 1008.8 |
| 20260831181104 | 73 | 9 | 0.0 | 2.0 | 0.00 | 0.00 | 0.00 | 40 | 1008.8 |
| 20260831181022 | 72 | 9 | 0.0 | 0.0 | 0.00 | 0.00 | 0.00 | 42 | 1008.9 |
| 20260831180603 | 72 | 9 | 0.0 | 0.0 | 0.00 | 0.00 | 0.00 | 42 | 1008.9 |
| 20260831180104 | 72 | 5 | 0.0 | 0.0 | 0.00 | 0.00 | 0.00 | 42 | 1008.9 |
| 20260831175604 | 72 | 8 | 0.0 | 0.0 | 0.00 | 0.00 | 0.00 | 46 | 1009.0 |
| 20260831174604 | 71 | 348 | 0.0 | 0.0 | 0.00 | 0.00 | 0.00 | 42 | 1009.1 |
| 20260831174022 | 72 | 354 | 0.0 | 0.0 | 0.00 | 0.00 | 0.00 | 40 | 1009.1 |
| 20260831173104 | 71 | 355 | 0.0 | 3.0 | 0.00 | 0.00 | 0.00 | 42 | 1009.2 |
| 20260831173024 | 71 | 347 | 0.0 | 3.0 | 0.00 | 0.00 | 0.00 | 42 | 1009.2 |
| 20260831172104 | 70 | 306 | 1.0 | 3.0 | 0.00 | 0.00 | 0.00 | 42 | 1009.3 |
| 20260831171604 | 70 | 298 | 0.0 | 0.0 | 0.00 | 0.00 | 0.00 | 45 | 1009.3 |
| 20260831171104 | 69 | 307 | 0.0 | 0.0 | 0.00 | 0.00 | 0.00 | 45 | 1009.3 |
| 20260831171022 | 69 | 318 | 0.0 | 1.0 | 0.00 | 0.00 | 0.00 | 45 | 1009.3 |
| 20260831170604 | 69 | 318 | 0.0 | 1.0 | 0.00 | 0.00 | 0.00 | 45 | 1009.3 |
| 20260831165603 | 68 | 318 | 0.0 | 0.0 | 0.00 | 0.00 | 0.00 | 47 | 1009.4 |
| 20260831164022 | 67 | 331 | 0.0 | 0.0 | 0.00 | 0.00 | 0.00 | 48 | 1009.6 |
| 20260831163605 | 67 | 331 | 0.0 | 0.0 | 0.00 | 0.00 | 0.00 | 48 | 1009.6 |
| 20260831163024 | 66 | 288 | 0.0 | 2.0 | 0.00 | 0.00 | 0.00 | 50 | 1009.7 |
| 20260831162604 | 66 | 288 | 0.0 | 2.0 | 0.00 | 0.00 | 0.00 | 50 | 1009.7 |
| 20260831162104 | 66 | 281 | 0.0 | 2.0 | 0.00 | 0.00 | 0.00 | 50 | 1009.8 |
| 20260831162021 | 65 | 272 | 0.0 | 1.0 | 0.00 | 0.00 | 0.00 | 50 | 1009.9 |
| 20260831161604 | 65 | 272 | 0.0 | 1.0 | 0.00 | 0.00 | 0.00 | 50 | 1009.9 |
| 20260831161104 | 65 | 268 | 0.0 | 0.0 | 0.00 | 0.00 | 0.00 | 51 | 1010.1 |
| 20260831161022 | 65 | 268 | 0.0 | 0.0 | 0.00 | 0.00 | 0.00 | 51 | 1010.1 |
| 20260831160603 | 65 | 268 | 0.0 | 0.0 | 0.00 | 0.00 | 0.00 | 51 | 1010.1 |
| 20260831160024 | 64 | 270 | 0.0 | 0.0 | 0.00 | 0.00 | 0.00 | 52 | 1010.2 |
| 20260831155603 | 64 | 270 | 0.0 | 0.0 | 0.00 | 0.00 | 0.00 | 52 | 1010.2 |
| 20260831155022 | 63 | 269 | 0.0 | 0.0 | 0.00 | 0.00 | 0.00 | 56 | 1010.3 |
| 20260831154604 | 63 | 269 | 0.0 | 0.0 | 0.00 | 0.00 | 0.00 | 56 | 1010.3 |
| 20260831153603 | 62 | 269 | 0.0 | 0.0 | 0.00 | 0.00 | 0.00 | 57 | 1010.4 |
| 20260831153104 | 61 | 269 | 0.0 | 0.0 | 0.00 | 0.00 | 0.00 | 57 | 1010.4 |
| 20260831153024 | 60 | 269 | 0.0 | 0.0 | 0.00 | 0.00 | 0.00 | 59 | 1010.3 |
| 20260831152604 | 60 | 269 | 0.0 | 0.0 | 0.00 | 0.00 | 0.00 | 59 | 1010.3 |
| 20260831152022 | 59 | 269 | 0.0 | 0.0 | 0.00 | 0.00 | 0.00 | 61 | 1010.4 |
| 20260831151603 | 59 | 269 | 0.0 | 0.0 | 0.00 | 0.00 | 0.00 | 61 | 1010.4 |
| 20260831151104 | 58 | 269 | 0.0 | 0.0 | 0.00 | 0.00 | 0.00 | 63 | 1010.4 |
| 20260831151021 | 57 | 269 | 0.0 | 0.0 | 0.00 | 0.00 | 0.00 | 65 | 1010.4 |
| 20260831150604 | 57 | 269 | 0.0 | 0.0 | 0.00 | 0.00 | 0.00 | 65 | 1010.4 |
| 20260831150104 | 56 | 269 | 0.0 | 0.0 | 0.00 | 0.00 | 0.00 | 67 | 1010.3 |
| 20260831150024 | 55 | 269 | 0.0 | 0.0 | 0.00 | 0.00 | 0.00 | 70 | 1010.4 |
| 20260831145103 | 54 | 269 | 0.0 | 0.0 | 0.00 | 0.00 | 0.00 | 71 | 1010.3 |
| 20260831145021 | 54 | 269 | 0.0 | 0.0 | 0.00 | 0.00 | 0.00 | 73 | 1010.3 |
| 20260831144103 | 53 | 269 | 0.0 | 0.0 | 0.00 | 0.00 | 0.00 | 75 | 1010.3 |
| 20260831144021 | 52 | 269 | 0.0 | 0.0 | 0.00 | 0.00 | 0.00 | 76 | 1010.2 |
| 20260831143604 | 52 | 269 | 0.0 | 0.0 | 0.00 | 0.00 | 0.00 | 76 | 1010.2 |
| 20260831143104 | 52 | 269 | 0.0 | 0.0 | 0.00 | 0.00 | 0.00 | 76 | 1010.3 |
| 20260831142604 | 51 | 269 | 0.0 | 0.0 | 0.00 | 0.00 | 0.00 | 76 | 1010.2 |
| 20260831142104 | 51 | 269 | 0.0 | 0.0 | 0.00 | 0.00 | 0.00 | 75 | 1010.1 |
| 20260831142021 | 51 | 269 | 0.0 | 0.0 | 0.00 | 0.00 | 0.00 | 75 | 1010.1 |
| 20260831141604 | 51 | 269 | 0.0 | 0.0 | 0.00 | 0.00 | 0.00 | 75 | 1010.1 |
| 20260831141104 | 51 | 269 | 0.0 | 0.0 | 0.00 | 0.00 | 0.00 | 75 | 1010.1 |
| 20260831141021 | 51 | 269 | 0.0 | 0.0 | 0.00 | 0.00 | 0.00 | 74 | 1010.1 |
| 20260831140604 | 51 | 269 | 0.0 | 0.0 | 0.00 | 0.00 | 0.00 | 74 | 1010.1 |
| 20260831140104 | 51 | 269 | 0.0 | 0.0 | 0.00 | 0.00 | 0.00 | 74 | 1010.0 |
| 20260831135103 | 51 | 269 | 0.0 | 0.0 | 0.00 | 0.00 | 0.00 | 75 | 1010.0 |
| 20260831135021 | 51 | 269 | 0.0 | 0.0 | 0.00 | 0.00 | 0.00 | 74 | 1010.1 |
| 20260831134604 | 51 | 269 | 0.0 | 0.0 | 0.00 | 0.00 | 0.00 | 74 | 1010.1 |
| 20260831134104 | 51 | 269 | 0.0 | 0.0 | 0.00 | 0.00 | 0.00 | 74 | 1010.0 |
| 20260831134022 | 51 | 269 | 0.0 | 0.0 | 0.00 | 0.00 | 0.00 | 74 | 1010.0 |
| 20260831133604 | 51 | 269 | 0.0 | 0.0 | 0.00 | 0.00 | 0.00 | 74 | 1010.0 |
| 20260831133021 | 51 | 269 | 0.0 | 0.0 | 0.00 | 0.00 | 0.00 | 74 | 1010.1 |
| 20260831132104 | 51 | 269 | 0.0 | 0.0 | 0.00 | 0.00 | 0.00 | 74 | 1010.1 |
| 20260831132022 | 51 | 269 | 0.0 | 0.0 | 0.00 | 0.00 | 0.00 | 73 | 1010.1 |
| 20260831131603 | 51 | 269 | 0.0 | 0.0 | 0.00 | 0.00 | 0.00 | 73 | 1010.1 |
| 20260831131104 | 51 | 269 | 0.0 | 0.0 | 0.00 | 0.00 | 0.00 | 73 | 1010.1 |
| 20260831130604 | 51 | 269 | 0.0 | 0.0 | 0.00 | 0.00 | 0.00 | 73 | 1010.1 |
| 20260831125604 | 51 | 269 | 0.0 | 0.0 | 0.00 | 0.00 | 0.00 | 72 | 1010.0 |
| 20260831125104 | 52 | 269 | 0.0 | 0.0 | 0.00 | 0.00 | 0.00 | 72 | 1010.0 |
| 20260831125022 | 52 | 269 | 0.0 | 0.0 | 0.00 | 0.00 | 0.00 | 72 | 1009.9 |
| 20260831124604 | 52 | 269 | 0.0 | 0.0 | 0.00 | 0.00 | 0.00 | 72 | 1009.9 |
| 20260831124022 | 52 | 269 | 0.0 | 0.0 | 0.00 | 0.00 | 0.00 | 72 | 1010.0 |
| 20260831123604 | 52 | 269 | 0.0 | 0.0 | 0.00 | 0.00 | 0.00 | 72 | 1010.0 |
| 20260831123104 | 52 | 269 | 0.0 | 0.0 | 0.00 | 0.00 | 0.00 | 72 | 1010.0 |
| 20260831123022 | 52 | 269 | 0.0 | 0.0 | 0.00 | 0.00 | 0.00 | 71 | 1010.1 |
| 20260831122603 | 52 | 269 | 0.0 | 0.0 | 0.00 | 0.00 | 0.00 | 71 | 1010.1 |
| 20260831122104 | 52 | 269 | 0.0 | 0.0 | 0.00 | 0.00 | 0.00 | 71 | 1010.1 |
| 20260831121604 | 52 | 269 | 0.0 | 0.0 | 0.00 | 0.00 | 0.00 | 71 | 1010.1 |
| 20260831121104 | 52 | 269 | 0.0 | 0.0 | 0.00 | 0.00 | 0.00 | 71 | 1010.0 |
| 20260831121022 | 52 | 269 | 0.0 | 0.0 | 0.00 | 0.00 | 0.00 | 71 | 1010.0 |
| 20260831120604 | 52 | 269 | 0.0 | 0.0 | 0.00 | 0.00 | 0.00 | 71 | 1010.0 |
| 20260831120104 | 53 | 269 | 0.0 | 0.0 | 0.00 | 0.00 | 0.00 | 71 | 1010.0 |
| 20260831120021 | 53 | 269 | 0.0 | 0.0 | 0.00 | 0.00 | 0.00 | 71 | 1010.0 |
| 20260831115604 | 53 | 269 | 0.0 | 0.0 | 0.00 | 0.00 | 0.00 | 71 | 1010.0 |
| 20260831115104 | 53 | 269 | 0.0 | 0.0 | 0.00 | 0.00 | 0.00 | 71 | 1010.1 |
| 20260831115022 | 53 | 269 | 0.0 | 0.0 | 0.00 | 0.00 | 0.00 | 71 | 1010.1 |
| 20260831114603 | 53 | 269 | 0.0 | 0.0 | 0.00 | 0.00 | 0.00 | 71 | 1010.1 |
| 20260831114103 | 53 | 269 | 0.0 | 0.0 | 0.00 | 0.00 | 0.00 | 70 | 1010.1 |
| 20260831114021 | 53 | 269 | 0.0 | 0.0 | 0.00 | 0.00 | 0.00 | 70 | 1010.2 |
| 20260831113104 | 53 | 269 | 0.0 | 0.0 | 0.00 | 0.00 | 0.00 | 70 | 1010.3 |
| 20260831113022 | 53 | 269 | 0.0 | 0.0 | 0.00 | 0.00 | 0.00 | 70 | 1010.3 |
| 20260831112603 | 53 | 269 | 0.0 | 0.0 | 0.00 | 0.00 | 0.00 | 70 | 1010.3 |
| 20260831112104 | 53 | 269 | 0.0 | 0.0 | 0.00 | 0.00 | 0.00 | 69 | 1010.3 |
| 20260831112022 | 53 | 269 | 0.0 | 0.0 | 0.00 | 0.00 | 0.00 | 69 | 1010.3 |
| 20260831111104 | 54 | 269 | 0.0 | 0.0 | 0.00 | 0.00 | 0.00 | 69 | 1010.3 |
| 20260831111022 | 54 | 269 | 0.0 | 0.0 | 0.00 | 0.00 | 0.00 | 69 | 1010.3 |
| 20260831110604 | 54 | 269 | 0.0 | 0.0 | 0.00 | 0.00 | 0.00 | 69 | 1010.3 |
| 20260831110104 | 54 | 269 | 0.0 | 0.0 | 0.00 | 0.00 | 0.00 | 69 | 1010.3 |
| 20260831110022 | 54 | 269 | 0.0 | 0.0 | 0.00 | 0.00 | 0.00 | 69 | 1010.2 |
| 20260831105604 | 54 | 269 | 0.0 | 0.0 | 0.00 | 0.00 | 0.00 | 69 | 1010.2 |
| 20260831105104 | 54 | 269 | 0.0 | 0.0 | 0.00 | 0.00 | 0.00 | 69 | 1010.2 |
| 20260831104604 | 54 | 269 | 0.0 | 0.0 | 0.00 | 0.00 | 0.00 | 69 | 1010.3 |
| 20260831104104 | 54 | 269 | 0.0 | 0.0 | 0.00 | 0.00 | 0.00 | 68 | 1010.3 |
| 20260831104022 | 54 | 269 | 0.0 | 0.0 | 0.00 | 0.00 | 0.00 | 68 | 1010.4 |
| 20260831103603 | 54 | 269 | 0.0 | 0.0 | 0.00 | 0.00 | 0.00 | 68 | 1010.4 |
| 20260831102604 | 55 | 269 | 0.0 | 0.0 | 0.00 | 0.00 | 0.00 | 67 | 1010.3 |
| 20260831102103 | 55 | 269 | 0.0 | 0.0 | 0.00 | 0.00 | 0.00 | 67 | 1010.3 |
| 20260831102021 | 55 | 269 | 0.0 | 0.0 | 0.00 | 0.00 | 0.00 | 67 | 1010.4 |
| 20260831101603 | 55 | 269 | 0.0 | 0.0 | 0.00 | 0.00 | 0.00 | 67 | 1010.4 |
| 20260831101104 | 55 | 269 | 0.0 | 0.0 | 0.00 | 0.00 | 0.00 | 66 | 1010.4 |
| 20260831101022 | 55 | 269 | 0.0 | 0.0 | 0.00 | 0.00 | 0.00 | 66 | 1010.4 |
| 20260831100604 | 55 | 269 | 0.0 | 0.0 | 0.00 | 0.00 | 0.00 | 66 | 1010.4 |
| 20260831100021 | 56 | 269 | 0.0 | 0.0 | 0.00 | 0.00 | 0.00 | 66 | 1010.4 |
| 20260831095604 | 56 | 269 | 0.0 | 0.0 | 0.00 | 0.00 | 0.00 | 66 | 1010.4 |
| 20260831095104 | 56 | 269 | 0.0 | 0.0 | 0.00 | 0.00 | 0.00 | 65 | 1010.4 |
| 20260831095022 | 56 | 269 | 0.0 | 0.0 | 0.00 | 0.00 | 0.00 | 65 | 1010.5 |
| 20260831094604 | 56 | 269 | 0.0 | 0.0 | 0.00 | 0.00 | 0.00 | 65 | 1010.5 |
| 20260831094104 | 56 | 269 | 0.0 | 0.0 | 0.00 | 0.00 | 0.00 | 65 | 1010.5 |
| 20260831094021 | 56 | 269 | 0.0 | 0.0 | 0.00 | 0.00 | 0.00 | 65 | 1010.5 |
| 20260831093604 | 56 | 269 | 0.0 | 0.0 | 0.00 | 0.00 | 0.00 | 65 | 1010.5 |
| 20260831093103 | 57 | 269 | 0.0 | 0.0 | 0.00 | 0.00 | 0.00 | 65 | 1010.5 |
| 20260831093021 | 57 | 269 | 0.0 | 0.0 | 0.00 | 0.00 | 0.00 | 64 | 1010.6 |
| 20260831092603 | 57 | 269 | 0.0 | 0.0 | 0.00 | 0.00 | 0.00 | 64 | 1010.6 |
| 20260831092104 | 57 | 269 | 0.0 | 0.0 | 0.00 | 0.00 | 0.00 | 63 | 1010.6 |
| 20260831091604 | 57 | 269 | 0.0 | 0.0 | 0.00 | 0.00 | 0.00 | 63 | 1010.6 |
| 20260831091104 | 57 | 269 | 0.0 | 0.0 | 0.00 | 0.00 | 0.00 | 63 | 1010.6 |
| 20260831091022 | 57 | 269 | 0.0 | 0.0 | 0.00 | 0.00 | 0.00 | 63 | 1010.6 |
| 20260831090104 | 58 | 269 | 0.0 | 0.0 | 0.00 | 0.00 | 0.00 | 63 | 1010.6 |
| 20260831085021 | 58 | 269 | 0.0 | 0.0 | 0.00 | 0.00 | 0.00 | 62 | 1010.7 |
| 20260831084604 | 58 | 269 | 0.0 | 0.0 | 0.00 | 0.00 | 0.00 | 62 | 1010.7 |
| 20260831084104 | 58 | 269 | 0.0 | 0.0 | 0.00 | 0.00 | 0.00 | 62 | 1010.6 |
| 20260831084021 | 58 | 269 | 0.0 | 0.0 | 0.00 | 0.00 | 0.00 | 62 | 1010.8 |
| 20260831083104 | 59 | 269 | 0.0 | 0.0 | 0.00 | 0.00 | 0.00 | 60 | 1010.8 |
| 20260831083021 | 59 | 269 | 0.0 | 0.0 | 0.00 | 0.00 | 0.00 | 60 | 1010.7 |
| 20260831082604 | 59 | 269 | 0.0 | 0.0 | 0.00 | 0.00 | 0.00 | 60 | 1010.7 |
| 20260831082103 | 59 | 269 | 0.0 | 0.0 | 0.00 | 0.00 | 0.00 | 60 | 1010.8 |
| 20260831081603 | 59 | 269 | 0.0 | 0.0 | 0.00 | 0.00 | 0.00 | 60 | 1010.7 |
| 20260831081104 | 60 | 269 | 0.0 | 0.0 | 0.00 | 0.00 | 0.00 | 60 | 1010.8 |
| 20260831081022 | 60 | 269 | 0.0 | 0.0 | 0.00 | 0.00 | 0.00 | 60 | 1010.8 |
| 20260831080603 | 60 | 269 | 0.0 | 0.0 | 0.00 | 0.00 | 0.00 | 60 | 1010.8 |
| 20260831080104 | 60 | 269 | 0.0 | 0.0 | 0.00 | 0.00 | 0.00 | 60 | 1010.8 |
| 20260831080022 | 60 | 269 | 0.0 | 0.0 | 0.00 | 0.00 | 0.00 | 60 | 1010.9 |
| 20260831075604 | 60 | 269 | 0.0 | 0.0 | 0.00 | 0.00 | 0.00 | 60 | 1010.9 |
| 20260831075104 | 61 | 269 | 0.0 | 0.0 | 0.00 | 0.00 | 0.00 | 59 | 1010.8 |
| 20260831075022 | 61 | 269 | 0.0 | 0.0 | 0.00 | 0.00 | 0.00 | 57 | 1010.9 |
| 20260831074604 | 61 | 269 | 0.0 | 0.0 | 0.00 | 0.00 | 0.00 | 57 | 1010.9 |
| 20260831074104 | 61 | 269 | 0.0 | 0.0 | 0.00 | 0.00 | 0.00 | 58 | 1010.9 |
| 20260831074022 | 61 | 269 | 0.0 | 0.0 | 0.00 | 0.00 | 0.00 | 58 | 1011.0 |
| 20260831073604 | 61 | 269 | 0.0 | 0.0 | 0.00 | 0.00 | 0.00 | 58 | 1011.0 |
| 20260831073103 | 61 | 269 | 0.0 | 0.0 | 0.00 | 0.00 | 0.00 | 57 | 1011.0 |
| 20260831073021 | 61 | 269 | 0.0 | 0.0 | 0.00 | 0.00 | 0.00 | 57 | 1011.0 |
| 20260831072104 | 61 | 269 | 0.0 | 0.0 | 0.00 | 0.00 | 0.00 | 56 | 1011.0 |
| 20260831072022 | 62 | 269 | 0.0 | 0.0 | 0.00 | 0.00 | 0.00 | 56 | 1011.0 |
| 20260831071604 | 62 | 269 | 0.0 | 0.0 | 0.00 | 0.00 | 0.00 | 56 | 1011.0 |
| 20260831071022 | 62 | 269 | 0.0 | 0.0 | 0.00 | 0.00 | 0.00 | 55 | 1011.1 |
| 20260831070604 | 62 | 269 | 0.0 | 0.0 | 0.00 | 0.00 | 0.00 | 55 | 1011.1 |
| 20260831070104 | 62 | 269 | 0.0 | 0.0 | 0.00 | 0.00 | 0.00 | 56 | 1011.2 |
| 20260831065603 | 63 | 269 | 0.0 | 0.0 | 0.00 | 0.00 | 0.00 | 55 | 1011.2 |
| 20260831065104 | 63 | 269 | 0.0 | 0.0 | 0.00 | 0.00 | 0.00 | 55 | 1011.2 |
| 20260831065021 | 63 | 269 | 0.0 | 0.0 | 0.00 | 0.00 | 0.00 | 53 | 1011.2 |
| 20260831064604 | 63 | 269 | 0.0 | 0.0 | 0.00 | 0.00 | 0.00 | 53 | 1011.2 |
| 20260831064104 | 63 | 269 | 0.0 | 0.0 | 0.00 | 0.00 | 0.00 | 53 | 1011.3 |
| 20260831063604 | 63 | 269 | 0.0 | 0.0 | 0.00 | 0.00 | 0.00 | 53 | 1011.3 |
| 20260831063104 | 64 | 269 | 0.0 | 0.0 | 0.00 | 0.00 | 0.00 | 53 | 1011.3 |
| 20260831063021 | 64 | 269 | 0.0 | 0.0 | 0.00 | 0.00 | 0.00 | 53 | 1011.4 |
| 20260831062604 | 64 | 269 | 0.0 | 0.0 | 0.00 | 0.00 | 0.00 | 53 | 1011.4 |
| 20260831062103 | 64 | 269 | 0.0 | 0.0 | 0.00 | 0.00 | 0.00 | 52 | 1011.3 |
| 20260831062021 | 65 | 269 | 0.0 | 0.0 | 0.00 | 0.00 | 0.00 | 53 | 1011.3 |
| 20260831061604 | 65 | 269 | 0.0 | 0.0 | 0.00 | 0.00 | 0.00 | 53 | 1011.3 |
| 20260831061104 | 65 | 269 | 0.0 | 0.0 | 0.00 | 0.00 | 0.00 | 51 | 1011.2 |
| 20260831061022 | 65 | 269 | 0.0 | 0.0 | 0.00 | 0.00 | 0.00 | 50 | 1011.3 |
| 20260831060604 | 65 | 269 | 0.0 | 0.0 | 0.00 | 0.00 | 0.00 | 50 | 1011.3 |
| 20260831060104 | 65 | 269 | 0.0 | 0.0 | 0.00 | 0.00 | 0.00 | 50 | 1011.3 |
| 20260831060021 | 66 | 269 | 0.0 | 0.0 | 0.00 | 0.00 | 0.00 | 50 | 1011.4 |
| 20260831055604 | 66 | 269 | 0.0 | 0.0 | 0.00 | 0.00 | 0.00 | 50 | 1011.4 |
| 20260831055104 | 66 | 269 | 0.0 | 0.0 | 0.00 | 0.00 | 0.00 | 49 | 1011.3 |
| 20260831054604 | 66 | 269 | 0.0 | 0.0 | 0.00 | 0.00 | 0.00 | 48 | 1011.3 |
| 20260831054104 | 66 | 269 | 0.0 | 0.0 | 0.00 | 0.00 | 0.00 | 48 | 1011.3 |
| 20260831054021 | 67 | 269 | 0.0 | 0.0 | 0.00 | 0.00 | 0.00 | 47 | 1011.4 |
| 20260831053604 | 67 | 269 | 0.0 | 0.0 | 0.00 | 0.00 | 0.00 | 47 | 1011.4 |
| 20260831053104 | 67 | 269 | 0.0 | 0.0 | 0.00 | 0.00 | 0.00 | 47 | 1011.4 |
| 20260831053021 | 67 | 269 | 0.0 | 0.0 | 0.00 | 0.00 | 0.00 | 47 | 1011.3 |
| 20260831052604 | 67 | 269 | 0.0 | 0.0 | 0.00 | 0.00 | 0.00 | 47 | 1011.3 |
| 20260831052104 | 67 | 269 | 0.0 | 0.0 | 0.00 | 0.00 | 0.00 | 47 | 1011.4 |
| 20260831052021 | 67 | 269 | 0.0 | 0.0 | 0.00 | 0.00 | 0.00 | 46 | 1011.5 |
| 20260831051604 | 67 | 269 | 0.0 | 0.0 | 0.00 | 0.00 | 0.00 | 46 | 1011.5 |
| 20260831051103 | 67 | 269 | 0.0 | 0.0 | 0.00 | 0.00 | 0.00 | 46 | 1011.5 |
| 20260831051021 | 68 | 269 | 0.0 | 0.0 | 0.00 | 0.00 | 0.00 | 46 | 1011.4 |
| 20260831050604 | 68 | 269 | 0.0 | 0.0 | 0.00 | 0.00 | 0.00 | 46 | 1011.4 |
| 20260831050104 | 68 | 269 | 0.0 | 0.0 | 0.00 | 0.00 | 0.00 | 46 | 1011.4 |
| 20260831050021 | 68 | 269 | 0.0 | 0.0 | 0.00 | 0.00 | 0.00 | 46 | 1011.4 |
| 20260831045022 | 69 | 269 | 0.0 | 0.0 | 0.00 | 0.00 | 0.00 | 48 | 1011.3 |
| 20260831044604 | 69 | 269 | 0.0 | 0.0 | 0.00 | 0.00 | 0.00 | 48 | 1011.3 |
| 20260831044104 | 69 | 269 | 0.0 | 0.0 | 0.00 | 0.00 | 0.00 | 46 | 1011.2 |
| 20260831044021 | 69 | 269 | 0.0 | 0.0 | 0.00 | 0.00 | 0.00 | 46 | 1011.1 |
| 20260831043604 | 69 | 269 | 0.0 | 0.0 | 0.00 | 0.00 | 0.00 | 46 | 1011.1 |
| 20260831043104 | 70 | 269 | 0.0 | 0.0 | 0.00 | 0.00 | 0.00 | 47 | 1011.1 |
| 20260831043022 | 70 | 269 | 0.0 | 0.0 | 0.00 | 0.00 | 0.00 | 44 | 1011.1 |
| 20260831042104 | 70 | 269 | 0.0 | 0.0 | 0.00 | 0.00 | 0.00 | 44 | 1011.1 |
| 20260831041603 | 71 | 269 | 0.0 | 0.0 | 0.00 | 0.00 | 0.00 | 44 | 1011.0 |
| 20260831041104 | 71 | 269 | 0.0 | 0.0 | 0.00 | 0.00 | 0.00 | 44 | 1010.9 |
| 20260831041021 | 71 | 270 | 0.0 | 0.0 | 0.00 | 0.00 | 0.00 | 44 | 1010.9 |
| 20260831040603 | 71 | 270 | 0.0 | 0.0 | 0.00 | 0.00 | 0.00 | 44 | 1010.9 |
| 20260831040104 | 72 | 270 | 0.0 | 0.0 | 0.00 | 0.00 | 0.00 | 43 | 1010.9 |
| 20260831040021 | 72 | 270 | 0.0 | 0.0 | 0.00 | 0.00 | 0.00 | 42 | 1010.8 |
| 20260831035604 | 72 | 270 | 0.0 | 0.0 | 0.00 | 0.00 | 0.00 | 42 | 1010.8 |
| 20260831035021 | 73 | 270 | 0.0 | 0.0 | 0.00 | 0.00 | 0.00 | 41 | 1010.7 |
| 20260831034604 | 73 | 270 | 0.0 | 0.0 | 0.00 | 0.00 | 0.00 | 41 | 1010.7 |
| 20260831033604 | 74 | 270 | 0.0 | 0.0 | 0.00 | 0.00 | 0.00 | 40 | 1010.5 |
| 20260831033104 | 75 | 270 | 0.0 | 0.0 | 0.00 | 0.00 | 0.00 | 38 | 1010.5 |
| 20260831032604 | 75 | 270 | 0.0 | 0.0 | 0.00 | 0.00 | 0.00 | 38 | 1010.4 |
| 20260831032104 | 76 | 270 | 0.0 | 0.0 | 0.00 | 0.00 | 0.00 | 37 | 1010.3 |
| 20260831032022 | 76 | 270 | 0.0 | 0.0 | 0.00 | 0.00 | 0.00 | 37 | 1010.3 |
| 20260831031603 | 76 | 270 | 0.0 | 0.0 | 0.00 | 0.00 | 0.00 | 37 | 1010.3 |
| 20260831031104 | 76 | 270 | 0.0 | 0.0 | 0.00 | 0.00 | 0.00 | 36 | 1010.2 |
| 20260831031022 | 77 | 270 | 0.0 | 0.0 | 0.00 | 0.00 | 0.00 | 37 | 1010.1 |
| 20260831030603 | 77 | 270 | 0.0 | 0.0 | 0.00 | 0.00 | 0.00 | 37 | 1010.1 |
| 20260831030104 | 77 | 270 | 0.0 | 0.0 | 0.00 | 0.00 | 0.00 | 35 | 1010.1 |
| 20260831030021 | 78 | 270 | 0.0 | 0.0 | 0.00 | 0.00 | 0.00 | 36 | 1010.1 |
| 20260831025604 | 78 | 270 | 0.0 | 0.0 | 0.00 | 0.00 | 0.00 | 36 | 1010.1 |
| 20260831025103 | 78 | 270 | 0.0 | 0.0 | 0.00 | 0.00 | 0.00 | 35 | 1010.0 |
| 20260831025021 | 78 | 270 | 0.0 | 0.0 | 0.00 | 0.00 | 0.00 | 35 | 1009.9 |
| 20260831024103 | 78 | 270 | 0.0 | 0.0 | 0.00 | 0.00 | 0.00 | 33 | 1009.9 |
| 20260831024022 | 79 | 269 | 0.0 | 0.0 | 0.00 | 0.00 | 0.00 | 31 | 1009.9 |
| 20260831023603 | 79 | 269 | 0.0 | 0.0 | 0.00 | 0.00 | 0.00 | 31 | 1009.9 |
| 20260831023103 | 79 | 267 | 0.0 | 0.0 | 0.00 | 0.00 | 0.00 | 31 | 1009.8 |
| 20260831023023 | 80 | 267 | 0.0 | 0.0 | 0.00 | 0.00 | 0.00 | 30 | 1009.9 |
| 20260831022603 | 80 | 267 | 0.0 | 0.0 | 0.00 | 0.00 | 0.00 | 30 | 1009.9 |
| 20260831022022 | 81 | 267 | 0.0 | 0.0 | 0.00 | 0.00 | 0.00 | 29 | 1009.8 |
| 20260831021103 | 82 | 267 | 0.0 | 0.0 | 0.00 | 0.00 | 0.00 | 29 | 1009.8 |
| 20260831021022 | 82 | 267 | 0.0 | 0.0 | 0.00 | 0.00 | 0.00 | 29 | 1009.8 |
| 20260831020604 | 82 | 267 | 0.0 | 0.0 | 0.00 | 0.00 | 0.00 | 29 | 1009.8 |
| 20260831020103 | 83 | 351 | 0.0 | 0.0 | 0.00 | 0.00 | 0.00 | 27 | 1009.8 |
| 20260831020023 | 83 | 345 | 0.0 | 0.0 | 0.00 | 0.00 | 0.00 | 24 | 1009.9 |
| 20260831015104 | 83 | 340 | 0.0 | 0.0 | 0.00 | 0.00 | 0.00 | 24 | 1010.0 |
| 20260831015022 | 84 | 340 | 0.0 | 3.0 | 0.00 | 0.00 | 0.00 | 23 | 1009.8 |
| 20260831014103 | 84 | 340 | 0.0 | 0.0 | 0.00 | 0.00 | 0.00 | 24 | 1009.9 |
| 20260831014021 | 84 | 339 | 0.0 | 1.0 | 0.00 | 0.00 | 0.00 | 24 | 1009.9 |
| 20260831013604 | 84 | 339 | 0.0 | 1.0 | 0.00 | 0.00 | 0.00 | 24 | 1009.9 |
| 20260831013104 | 84 | 341 | 0.0 | 0.0 | 0.00 | 0.00 | 0.00 | 24 | 1009.9 |
| 20260831013024 | 85 | 355 | 0.0 | 5.0 | 0.00 | 0.00 | 0.00 | 23 | 1010.0 |
| 20260831012604 | 85 | 355 | 0.0 | 5.0 | 0.00 | 0.00 | 0.00 | 23 | 1010.0 |
| 20260831012104 | 85 | 290 | 1.0 | 5.0 | 0.00 | 0.00 | 0.00 | 23 | 1010.0 |
| 20260831012022 | 85 | 13 | 1.0 | 3.0 | 0.00 | 0.00 | 0.00 | 24 | 1010.1 |
| 20260831011604 | 85 | 13 | 1.0 | 3.0 | 0.00 | 0.00 | 0.00 | 24 | 1010.1 |
| 20260831011104 | 85 | 0 | 0.0 | 8.0 | 0.00 | 0.00 | 0.00 | 24 | 1010.0 |
| 20260831011022 | 85 | 9 | 2.0 | 5.0 | 0.00 | 0.00 | 0.00 | 24 | 1010.1 |
| 20260831010604 | 85 | 9 | 2.0 | 5.0 | 0.00 | 0.00 | 0.00 | 24 | 1010.1 |
| 20260831010104 | 85 | 351 | 0.0 | 5.0 | 0.00 | 0.00 | 0.00 | 25 | 1010.1 |
| 20260831010025 | 85 | 19 | 0.0 | 1.0 | 0.00 | 0.00 | 0.00 | 26 | 1010.2 |
| 20260831005604 | 85 | 19 | 0.0 | 1.0 | 0.00 | 0.00 | 0.00 | 26 | 1010.2 |
| 20260831005104 | 85 | 15 | 0.0 | 2.0 | 0.00 | 0.00 | 0.00 | 25 | 1010.2 |
| 20260831004604 | 85 | 14 | 1.0 | 3.0 | 0.00 | 0.00 | 0.00 | 25 | 1010.3 |
| 20260831004104 | 85 | 316 | 0.0 | 5.0 | 0.00 | 0.00 | 0.00 | 25 | 1010.4 |
| 20260831004023 | 85 | 312 | 1.0 | 3.0 | 0.00 | 0.00 | 0.00 | 25 | 1010.4 |
| 20260831003604 | 85 | 312 | 1.0 | 3.0 | 0.00 | 0.00 | 0.00 | 25 | 1010.4 |
| 20260831002604 | 85 | 355 | 0.0 | 3.0 | 0.00 | 0.00 | 0.00 | 24 | 1010.4 |
| 20260831002103 | 85 | 62 | 0.0 | 0.0 | 0.00 | 0.00 | 0.00 | 26 | 1010.4 |
| 20260831002023 | 85 | 59 | 1.0 | 3.0 | 0.00 | 0.00 | 0.00 | 24 | 1010.4 |
| 20260831001603 | 85 | 59 | 1.0 | 3.0 | 0.00 | 0.00 | 0.00 | 24 | 1010.4 |
| 20260831001104 | 85 | 10 | 0.0 | 0.0 | 0.00 | 0.00 | 0.00 | 25 | 1010.5 |
| 20260831001020 | 85 | 44 | 0.0 | 2.0 | 0.00 | 0.00 | 0.00 | 26 | 1010.5 |
| 20260831000603 | 85 | 44 | 0.0 | 2.0 | 0.00 | 0.00 | 0.00 | 26 | 1010.5 |
| 20260831000103 | 85 | 66 | 1.0 | 3.0 | 0.00 | 0.00 | 0.00 | 26 | 1010.5 |
| 20260831000022 | 85 | 7 | 2.0 | 7.0 | 0.00 | 0.00 | 0.00 | 25 | 1010.6 |
| 20260830235604 | 85 | 7 | 2.0 | 7.0 | 0.00 | 0.00 | 0.00 | 25 | 1010.6 |
| 20260830235104 | 84 | 325 | 0.0 | 3.0 | 0.00 | 0.00 | 0.00 | 28 | 1010.6 |
| 20260830234604 | 85 | 350 | 1.0 | 6.0 | 0.00 | 0.00 | 0.00 | 27 | 1010.7 |
| 20260830234103 | 85 | 10 | 0.0 | 5.0 | 0.00 | 0.00 | 0.00 | 26 | 1010.8 |
| 20260830234020 | 84 | 31 | 2.0 | 5.0 | 0.00 | 0.00 | 0.00 | 26 | 1010.8 |
| 20260830233604 | 84 | 31 | 2.0 | 5.0 | 0.00 | 0.00 | 0.00 | 26 | 1010.8 |
| 20260830233103 | 84 | 6 | 1.0 | 3.0 | 0.00 | 0.00 | 0.00 | 27 | 1010.9 |
| 20260830233022 | 85 | 346 | 0.0 | 5.0 | 0.00 | 0.00 | 0.00 | 27 | 1010.9 |
| 20260830232603 | 85 | 346 | 0.0 | 5.0 | 0.00 | 0.00 | 0.00 | 27 | 1010.9 |